[[{"header":{"parameterUnit":"m.s-1","parameterCategory":1,"la1":30.2991,"la2":30.254,"lo1":-89.0895,"lo2":-89.0444,"dy":0.0017,"dx":0.0017,"nx":28,"ny":28,"refTime":"2025-12-27T09:00:00:Z","depth":0,"parameterNumber":2,"parameterNumberName":"U-component_of_WINDS"},"data":[0,0,0,0,0,0,0,0,0,0,0,0,0,0,0,0,0,0,0,0,0,0,0,0,0,0,0,0,0,0,0,0,0,0,0,0,0,0,0,0,0,0,0,0,0,0,0,0,0,0,0,0,0,0,0,0,0,0,0.9173,0.9174,0,0.925,0.9251,0.9252,0.9231,0.923,0.9228,0.9227,0.931,0.9314,0.9318,0,0,0,0,0,0,0,0,0,0,0,0,0,0.9011,0.9014,0.9173,0.9174,0.9175,0.925,0.9251,0.9252,0.9232,0.923,0.9228,0.9226,0.9309,0.9314,0.9318,0,0,0,0,0,0,0,0,0,0,0,0,0,0.9084,0.9015,0.9173,0.9173,0.9174,0.925,0.9251,0.9253,0.9232,0.923,0.9227,0.9225,0.9308,0.9313,0.9319,0.94,0,0,0.9336,0.9338,0,0,0,0,0,0,0,0,0.908,0.909,0.9172,0.9174,0.9175,0.9229,0.9225,0.9302,0.9233,0.921,0.9227,0.9224,0.9285,0.9293,0.9312,0.9404,0.9407,0.9336,0.9339,0.9342,0.9343,0,0,0,0,0,0,0,0.9075,0.9087,0.9204,0.9174,0.9175,0.9171,0.9179,0.9239,0.926,0.9212,0.9211,0.922,0.9286,0.9307,0.9314,0.9408,0.9336,0.9341,0.9344,0.9346,0.957,0.9572,0,0,0,0,0,0,0.9068,0.9082,0.9201,0.9206,0.912,0.9176,0.9185,0.9214,0.9259,0.9264,0.9222,0.9219,0.9299,0.9308,0.9317,0.9415,0.9342,0.9347,0.935,0.9567,0.957,0.9573,0,0,0,0,0,0,0.9065,0.9079,0.9198,0.9144,0.9159,0.9181,0.9214,0.9216,0.9238,0.9267,0.9271,0.924,0.9297,0.9309,0.9379,0.9418,0.9349,0.9354,0.9564,0.9568,0.9572,0.9612,0,0,0,0,0,0,0.906,0.9078,0.9108,0.9145,0.9162,0.9258,0.9216,0.922,0.9247,0.9244,0.9285,0.9289,0.9296,0.9371,0.9384,0.9424,0.9359,0.9561,0.9566,0.957,0.9607,0.9617,0.9625,0,0,0,0,0,0.9055,0.9118,0.911,0.9125,0.92,0.926,0.927,0.9275,0.925,0.9281,0.93,0.9288,0.9411,0.9378,0.9393,0.9435,0.9558,0.9564,0.957,0.9603,0.9615,0.9624,0,0,0,0,0,0,0.9087,0.9123,0.9114,0.9191,0.9222,0.9256,0.9296,0.9288,0.9328,0.9324,0.933,0.934,0.9411,0.943,0.9393,0.9516,0.9481,0.949,0.9501,0.9512,0.9521,0.9515,0.9363,0,0,0,0,0,0.9103,0.9148,0.9176,0.9241,0.9257,0.9274,0.93,0.9301,0.9335,0.9349,0.9372,0.9407,0.9453,0.9483,0.9527,0.9609,0.9618,0.9645,0.9654,0.9661,0.967,0.9714,0.9727,0.9592,0.9592,0.9592,0,0,0.9137,0.9162,0.919,0.9248,0.9273,0.932,0.9285,0.9337,0.9372,0.9357,0.9424,0.9442,0.9481,0.9557,0.9591,0.9575,0.9708,0.9669,0.9674,0.9679,0.9722,0.9734,0.9746,0.9596,0.9596,0.9595,0,0,0.9223,0.9245,0.9302,0.9326,0.9363,0.9374,0.9387,0.9422,0.9433,0.95,0.9489,0.9532,0.9611,0.9639,0.9664,0.9758,0.9749,0.9772,0.9819,0.9862,0.9873,0.9882,0.9917,0.9929,0.978,0.978,0.978,0,0.9261,0.933,0.9332,0.9384,0.9411,0.9397,0.9454,0.9479,0.9529,0.9548,0.9528,0.9627,0.9652,0.9734,0.9757,0.9777,0.9793,0.9769,0.9871,0.988,0.9889,0.9922,0.9935,0.9783,0.9783,0.9782,0.9782,0,0.9375,0.9423,0.9464,0.9511,0.9542,0.9597,0.9608,0.9639,0.9637,0.965,0.9718,0.9747,0.9797,0.9816,0.9816,0.9898,0.9887,0.9869,0.9834,0.9905,0.9936,0.9948,0.9787,0.9786,0.9785,0.9784,0,0,0.9485,0.9531,0.9546,0.9567,0.9606,0.9644,0.9698,0.9745,0.9772,0.9806,0.9853,0.9919,0.9902,0.993,0.9933,0.9971,1.0044,0.9948,0.9949,0.9966,1.0138,1.0152,1.0166,1.0037,1.004,1.0042,1.0135,0,0.9575,0.9669,0.9672,0.9758,0.9803,0.979,0.9837,0.9866,0.9879,0.992,0.9935,0.9982,0.9956,0.9973,1.0009,1.0027,1.0079,1.002,1.0082,1.0084,1.0074,1.0182,1.0198,1.0284,1.0147,1.0149,1.015,0,0.9693,0.9729,0.982,0.9851,0.987,0.9912,0.9955,0.9994,1.0027,1.0034,1.0064,1.006,1.0117,1.0078,1.0156,1.0117,1.0142,1.0154,1.0158,1.0165,1.0123,1.0194,1.0312,1.0325,1.0169,1.0168,1.0166,0,0.9765,0.9837,0.99,0.9918,0.9957,0.9987,1.0004,1.0035,1.0063,1.01,1.0119,1.0163,1.0188,1.0222,1.0231,1.0202,1.0309,1.0272,1.0317,1.0317,1.0342,1.0341,1.0467,1.0356,1.0356,1.0355,1.0355,0,0.9866,0.9922,0.9933,0.9972,1.0035,1.0037,1.0099,1.0115,1.0142,1.0185,1.0176,1.0216,1.0225,1.0267,1.0274,1.0338,1.0349,1.0357,1.0358,1.0358,1.0358,1.0376,1.0371,1.0359,1.0358,1.0358,1.0357,0,0.9958,0.9968,1.0036,1.0066,1.0075,1.012,1.0146,1.0184,1.0194,1.0249,1.0261,1.0279,1.0329,1.034,1.0399,1.0404,1.048,1.0475,1.0468,1.0468,1.0514,1.051,1.0658,1.0677,1.0552,1.0553,1.0554,0,1.0023,1.0065,1.0099,1.0126,1.0145,1.0189,1.0216,1.022,1.025,1.029,1.0323,1.0371,1.041,1.0489,1.0508,1.0553,1.055,1.0599,1.0557,1.0556,1.0553,1.055,1.0555,1.0608,1.0609,1.061,1.0611,0,1.0136,1.0138,1.0178,1.0219,1.0252,1.0285,1.0316,1.0339,1.0348,1.0381,1.043,1.046,1.0519,1.0568,1.0612,1.0632,1.0624,1.0623,1.0637,1.0638,1.0633,1.0637,1.0491,1.0621,1.062,1.0619,1.0618,1.0618,1.0217,1.0254,1.0284,1.0328,1.0351,1.0381,1.0417,1.0432,1.0473,1.0521,1.052,1.0575,1.0606,1.0665,1.0687,1.073,1.0716,1.0734,1.074,1.0745,1.0749,1.0624,1.0738,1.0738,1.0738,1.0738,1.0738,0,1.0331,1.0349,1.0389,1.0432,1.0467,1.0454,1.0488,1.0518,1.0566,1.0595,1.0632,1.0689,1.0735,1.0757,1.0803,1.0833,1.0831,1.0845,1.0844,1.0849,1.0759,1.0744,1.0847,1.0847,1.0847,1.0847,1.0847,1.0847,1.0394,1.0456,1.0462,1.0535,1.0553,1.0605,1.0625,1.0653,1.0676,1.0739,1.0777,1.079,1.0817,1.0864,1.0906,1.0911,1.0929,1.0946,1.095,1.0866,1.0855,1.0845,1.083,1.095,1.095,1.1036,1.1037,1.1038]},{"header":{"parameterUnit":"m.s-1","parameterCategory":1,"la1":30.2991,"la2":30.254,"lo1":-89.0895,"lo2":-89.0444,"dy":0.0017,"dx":0.0017,"nx":28,"ny":28,"refTime":"2025-12-27T09:00:00:Z","depth":0,"parameterNumber":3,"parameterNumberName":"V-component_of_WINDS"},"data":[0,0,0,0,0,0,0,0,0,0,0,0,0,0,0,0,0,0,0,0,0,0,0,0,0,0,0,0,0,0,0,0,0,0,0,0,0,0,0,0,0,0,0,0,0,0,0,0,0,0,0,0,0,0,0,0,0,0,3.4068,3.4069,0,3.4151,3.4152,3.4152,3.4119,3.4117,3.4115,3.4114,3.4195,3.4199,3.4203,0,0,0,0,0,0,0,0,0,0,0,0,0,3.388,3.3884,3.4068,3.4069,3.407,3.415,3.4152,3.4153,3.412,3.4117,3.4115,3.4113,3.4194,3.4198,3.4203,0,0,0,0,0,0,0,0,0,0,0,0,0,3.3962,3.3885,3.4068,3.4064,3.4064,3.415,3.4152,3.4153,3.412,3.4117,3.4114,3.4112,3.4192,3.4198,3.4204,3.4298,0,0,3.4222,3.4225,0,0,0,0,0,0,0,0,3.3957,3.3969,3.4063,3.4064,3.4065,3.4122,3.4115,3.4202,3.4121,3.4099,3.4114,3.411,3.4173,3.418,3.4202,3.4302,3.4306,3.4223,3.4226,3.4229,3.423,0,0,0,0,0,0,0,3.3952,3.3965,3.4101,3.4065,3.4066,3.4057,3.4065,3.4131,3.4151,3.41,3.4098,3.4109,3.4173,3.4196,3.4204,3.4307,3.4222,3.4228,3.4231,3.4234,3.449,3.4493,0,0,0,0,0,0,3.3946,3.3961,3.4098,3.4103,3.4003,3.4062,3.4072,3.4106,3.415,3.4154,3.4111,3.4107,3.4188,3.4197,3.4206,3.4321,3.4229,3.4234,3.4238,3.4487,3.4491,3.4494,0,0,0,0,0,0,3.3942,3.3959,3.4095,3.4032,3.4048,3.4069,3.4108,3.411,3.4133,3.4158,3.4161,3.4132,3.4186,3.4198,3.4276,3.4323,3.4237,3.4242,3.4483,3.4488,3.4492,3.4551,0,0,0,0,0,0,3.3937,3.3958,3.3995,3.4033,3.4052,3.4165,3.4111,3.4113,3.4144,3.4139,3.4178,3.4182,3.4184,3.4268,3.4282,3.433,3.4247,3.4479,3.4485,3.4491,3.4545,3.4557,3.4568,0,0,0,0,0,3.3931,3.4007,3.3997,3.4013,3.4098,3.4167,3.4178,3.418,3.4148,3.4185,3.4201,3.4181,3.4316,3.4276,3.4292,3.4342,3.4476,3.4483,3.449,3.454,3.4555,3.4567,0,0,0,0,0,0,3.3972,3.4012,3.4001,3.4092,3.4127,3.4162,3.4208,3.4195,3.4239,3.4233,3.4232,3.4241,3.4323,3.434,3.4295,3.4437,3.4391,3.4402,3.4423,3.4437,3.4448,3.4443,3.4252,0,0,0,0,0,3.3993,3.4046,3.4077,3.4154,3.4173,3.4188,3.4217,3.4216,3.4252,3.4266,3.4288,3.4322,3.4372,3.4405,3.4453,3.4547,3.4555,3.4589,3.46,3.461,3.462,3.4671,3.4687,3.4518,3.4518,3.4518,0,0,3.4034,3.4062,3.4096,3.4164,3.419,3.4246,3.42,3.426,3.4301,3.4274,3.4351,3.4368,3.4406,3.4493,3.4532,3.451,3.4668,3.4619,3.4626,3.4631,3.4681,3.4697,3.4711,3.4523,3.4522,3.4521,0,0,3.4139,3.4165,3.4233,3.4261,3.4303,3.4312,3.4328,3.4366,3.4377,3.4453,3.4435,3.4482,3.4568,3.4597,3.4623,3.4739,3.4722,3.4754,3.4814,3.4864,3.4878,3.489,3.4932,3.4947,3.4763,3.4763,3.4763,0,3.4185,3.4268,3.4269,3.4332,3.4362,3.4342,3.441,3.4437,3.4491,3.4513,3.4487,3.4596,3.462,3.4714,3.4742,3.4763,3.4782,3.475,3.4876,3.4888,3.4899,3.4939,3.4955,3.4767,3.4767,3.4766,3.4766,0,3.4324,3.4382,3.4432,3.4487,3.4522,3.4587,3.4597,3.4633,3.4628,3.4641,3.4719,3.4747,3.4801,3.4822,3.4817,3.4916,3.4901,3.4876,3.483,3.4919,3.4957,3.4972,3.4772,3.4771,3.477,3.4769,0,0,3.4458,3.4513,3.4531,3.4557,3.4601,3.4646,3.4709,3.4763,3.4794,3.4832,3.4886,3.4959,3.4937,3.4966,3.4964,3.5008,3.5099,3.4977,3.4978,3.5,3.5211,3.5231,3.5249,3.5088,3.5091,3.5093,3.5208,0,3.4567,3.4681,3.4684,3.4788,3.4842,3.4823,3.4879,3.4912,3.4924,3.4971,3.4984,3.5037,3.5003,3.5021,3.5063,3.5079,3.5142,3.5071,3.5139,3.5141,3.5131,3.5268,3.5289,3.5396,3.5223,3.5225,3.5227,0,3.471,3.4754,3.4864,3.4902,3.4925,3.4975,3.5025,3.5069,3.5106,3.5112,3.5146,3.5137,3.5202,3.5153,3.5242,3.5194,3.5221,3.5233,3.5237,3.5245,3.5191,3.5281,3.543,3.5447,3.525,3.5248,3.5247,0,3.4798,3.4885,3.4963,3.4984,3.503,3.5066,3.5086,3.512,3.5153,3.5195,3.5216,3.5265,3.5292,3.533,3.5335,3.5299,3.5425,3.5376,3.5432,3.5432,3.5461,3.546,3.5618,3.5476,3.5476,3.5476,3.5475,0,3.4921,3.4989,3.5003,3.5051,3.5127,3.5129,3.5204,3.5221,3.5251,3.5302,3.5287,3.5335,3.5338,3.5386,3.539,3.5464,3.5476,3.5482,3.5483,3.5485,3.5484,3.5504,3.5497,3.548,3.5479,3.5478,3.5477,0,3.5033,3.5045,3.5129,3.5166,3.5176,3.5231,3.5262,3.5307,3.5318,3.5382,3.5397,3.5415,3.5471,3.5479,3.5545,3.5547,3.5637,3.5628,3.5625,3.5624,3.568,3.5676,3.5859,3.5883,3.5724,3.5725,3.5727,0,3.5111,3.5164,3.5207,3.524,3.5263,3.5317,3.535,3.5353,3.5388,3.5435,3.5474,3.5529,3.5574,3.5664,3.5682,3.5732,3.5726,3.5787,3.5734,3.5734,3.5729,3.5727,3.5732,3.5798,3.5799,3.5801,3.5802,0,3.525,3.5253,3.5302,3.5354,3.5395,3.5435,3.5473,3.5501,3.5509,3.5549,3.5607,3.5642,3.5709,3.5764,3.5814,3.5834,3.582,3.5818,3.5834,3.5838,3.5834,3.5838,3.5655,3.5815,3.5813,3.5812,3.5812,3.5811,3.5348,3.5395,3.5433,3.5488,3.5517,3.5554,3.5599,3.5616,3.5665,3.5721,3.572,3.5784,3.5819,3.5885,3.5908,3.5958,3.5938,3.596,3.5966,3.5972,3.5979,3.5825,3.5966,3.5966,3.5966,3.5965,3.5965,0,3.5487,3.5511,3.5562,3.5617,3.566,3.5644,3.5685,3.5722,3.578,3.5814,3.5859,3.5926,3.5979,3.6001,3.6054,3.6089,3.6084,3.6103,3.6101,3.6106,3.5993,3.5975,3.6106,3.6106,3.6106,3.6106,3.6106,3.6106,3.5564,3.5643,3.5651,3.5743,3.5766,3.583,3.5855,3.5888,3.5916,3.5992,3.6037,3.6052,3.6082,3.6136,3.6184,3.6189,3.6209,3.6232,3.6234,3.6128,3.6114,3.61,3.6083,3.6236,3.6236,3.6343,3.6344,3.6345]}]]